Starlink 11545

operational
NORAD ID: 63016 Int'l Des: 2025-032 Owner: SPXS Country: US Constellation: starlink
LEOCIRCULAR

Über Starlink 11545

Beschreibung wird geladen...

Live-Position

3D-Globus wird geladen...

Nächste Überflüge

Höhenverlauf

Altitude vs Time

uPlot chart will show altitude changes over time

Zweizeiliger Elementsatz

1 63016U 25032M 25305.55884495 .00281153 00000-0 21083-2 0 9997
2 63016 42.9998 247.5342 0001403 27.3175 332.7766 15.70986602 42070
Epoch: 1. Nov. 2025 • Age: 29 hours

Aktueller Status

Höhe 354.1 km
Geschwindigkeit 7.70 km/s
Subsatellitenpunkt -5.22°S, 83.08°W
Startdatum 15. Feb. 2025
Alter 0.7 years
Typ internet

Technische Details

Klassifizierung Payload
Masse 960.00 kg
Trockenmasse 910.00 kg
Gesamtmasse 960.00 kg
Länge 0.30 m
Durchmesser 4.10 m
Spannweite 29.00 m
Form Box + pan
Hersteller SPXS
Bus-Typ Starlink V2MD
Phasenstatus In Orbit
Besitzer/Staat SPXS/US

Große Konstellationen

Loading constellations...